EW3836 Weather Reports


Display with metric or nautical units.
time (UTC)temp
F
wind
direction
speed
MPH
gust
MPH
rain 1hr
in
rain 24hr
in
rain mn
in
humidity
%
barometer
mb
20260505224546 71 335 0.0 0.0 0.00 0.00 0.00 52 1007.9
20260505223043 71 48 0.0 0.0 0.00 0.00 0.00 51 1007.9
20260505221542 70 330 0.0 0.0 0.00 0.00 0.00 55 1008.0
20260505220042 68 28 0.0 0.0 0.00 0.00 0.00 55 1008.0
20260505214601 69 44 0.0 0.0 0.00 0.00 0.00 54 1008.2
20260505213039 70 317 0.0 0.0 0.00 0.00 0.00 56 1008.2
20260505211535 68 307 0.0 0.0 0.00 0.00 0.00 60 1008.2
20260505210036 69 315 0.0 0.0 0.00 0.00 0.00 60 1008.2
20260505204534 68 288 0.0 0.0 0.00 0.00 0.00 58 1008.3
20260505203028 67 288 0.0 0.0 0.00 0.00 0.00 58 1008.3
20260505201524 66 325 0.0 0.0 0.00 0.00 0.00 60 1008.3
20260505200029 65 295 0.0 0.0 0.00 0.00 0.00 60 1008.4
20260505194522 64 229 0.0 0.0 0.00 0.00 0.00 64 1008.4
20260505193021 63 204 0.0 0.0 0.00 0.00 0.00 66 1008.4
20260505191520 63 292 0.0 0.0 0.00 0.00 0.00 64 1008.4
20260505190025 63 300 0.0 0.0 0.00 0.00 0.00 69 1008.6
20260505184520 63 278 0.0 0.0 0.00 0.00 0.00 66 1008.6
20260505183026 62 294 0.0 0.0 0.00 0.00 0.00 65 1008.5
20260505181519 62 256 0.0 0.0 0.00 0.00 0.00 68 1008.4
20260505180015 62 304 0.0 0.0 0.00 0.00 0.00 67 1008.3
20260505174513 62 219 0.0 0.0 0.00 0.00 0.00 69 1008.2
20260505173012 61 259 0.0 0.0 0.00 0.00 0.00 72 1008.1
20260505171510 61 273 0.0 0.0 0.00 0.00 0.00 67 1008.1
20260505170009 61 282 0.0 0.0 0.00 0.00 0.00 68 1007.9
20260505164507 60 250 0.0 0.0 0.00 0.00 0.00 68 1007.8
20260505163010 60 302 0.0 0.0 0.00 0.00 0.00 67 1007.7
20260505161505 60 239 0.0 0.0 0.00 0.00 0.00 70 1007.6
20260505153002 59 241 0.0 0.0 0.00 0.00 0.00 69 1007.3
20260505151611 58 245 0.0 0.0 0.00 0.00 0.00 69 1007.2
20260505140111 56 247 0.0 0.0 0.00 0.00 0.00 72 1006.5
20260505124544 55 197 0.0 0.0 0.00 0.00 0.00 70 1005.8
20260505123047 56 199 0.0 0.0 0.00 0.00 0.00 69 1005.8
20260505121540 56 199 0.0 0.0 0.00 0.00 0.00 68 1005.7
20260505120045 56 228 0.0 0.0 0.00 0.00 0.00 68 1005.5
20260505114544 56 224 0.0 0.0 0.00 0.00 0.00 67 1005.4
20260505113031 56 202 0.0 0.0 0.00 0.00 0.00 67 1005.3
20260505111528 57 155 0.0 0.0 0.00 0.00 0.00 66 1005.2
20260505101533 58 233 0.0 0.0 0.00 0.00 0.00 63 1004.8
20260505100020 58 214 0.0 0.0 0.00 0.00 0.00 64 1004.6
20260505094530 58 214 0.0 0.0 0.00 0.00 0.00 64 1004.6
20260505093016 58 173 0.0 0.0 0.00 0.00 0.00 64 1004.5
20260505091515 58 188 0.0 0.0 0.00 0.00 0.00 65 1004.5
20260505090019 58 198 0.0 0.0 0.00 0.00 0.00 64 1004.5
20260505084511 58 196 0.0 0.0 0.00 0.00 0.00 63 1004.4
20260505083015 58 207 0.0 0.0 0.00 0.00 0.00 61 1004.5
20260505081503 59 205 0.0 0.0 0.00 0.00 0.00 57 1004.6
20260505074555 64 284 0.0 0.0 0.00 0.00 0.00 45 1004.3
20260505073057 62 119 0.0 0.0 0.00 0.00 0.00 46 1004.1
20260505071558 63 119 0.0 0.0 0.00 0.00 0.00 46 1003.9
20260505070045 62 119 0.0 0.0 0.00 0.00 0.00 47 1003.8
20260505064548 63 119 0.0 0.0 0.00 0.00 0.00 48 1003.7
20260505063043 63 119 0.0 0.0 0.00 0.00 0.00 47 1003.6
20260505061547 63 119 0.0 0.0 0.00 0.00 0.00 48 1003.7
20260505060050 62 119 0.0 0.0 0.00 0.00 0.00 50 1003.6
20260505054542 62 119 0.0 0.0 0.00 0.00 0.00 51 1003.6
20260505053042 62 119 0.0 0.0 0.00 0.00 0.00 50 1003.6
20260505051556 62 119 0.0 0.0 0.00 0.00 0.00 51 1003.6
20260505041539 65 100 0.0 0.0 0.00 0.00 0.00 44 1003.7
20260505040039 66 84 0.0 0.0 0.00 0.00 0.00 44 1003.6
20260505034537 66 44 0.0 0.0 0.00 0.00 0.00 42 1003.4
20260505033038 66 44 0.0 0.0 0.00 0.00 0.00 42 1003.3
20260505031535 67 44 0.0 0.0 0.00 0.00 0.00 41 1003.0
20260505030035 68 44 0.0 0.0 0.00 0.00 0.00 40 1003.0
20260505024534 69 44 0.0 0.0 0.00 0.00 0.00 39 1002.9
20260505023033 72 44 0.0 0.0 0.00 0.00 0.00 38 1002.8
20260505021532 74 44 0.0 0.0 0.00 0.00 0.00 35 1002.9
20260505020031 73 44 0.0 0.0 0.00 0.00 0.00 37 1002.9
20260505014530 74 44 0.0 0.0 0.00 0.00 0.00 35 1003.1
20260505013028 73 26 0.0 0.0 0.00 0.00 0.00 36 1003.2
20260505011527 74 25 0.0 0.0 0.00 0.00 0.00 35 1003.2
20260505010025 73 306 0.0 0.0 0.00 0.00 0.00 38 1003.4
20260505004526 73 11 0.0 0.0 0.00 0.00 0.00 39 1003.4
20260505003021 72 316 0.0 0.0 0.00 0.00 0.00 38 1003.5
20260505001519 73 58 0.0 0.0 0.00 0.00 0.00 37 1003.5
20260505000022 73 308 0.0 0.0 0.00 0.00 0.00 35 1003.6
20260504234511 73 53 0.0 0.0 0.00 0.00 0.00 33 1003.6
20260504233008 72 321 0.0 0.0 0.00 0.00 0.00 34 1003.6
20260504231509 74 360 0.0 0.0 0.00 0.00 0.00 31 1003.7
20260504230004 72 309 0.0 0.0 0.00 0.00 0.00 32 1003.7